This is the latest recevied weather packets stored in our database for station/object WC4PEM-9. If no packets are shown the sender has not sent any weather packets the latest 10 day(s).
| Time | Temp. | Humidity | Pressure | Rain* | Wind** | Luminosity | Snow |
|---|---|---|---|---|---|---|---|
| 1778013207 | 30.56° C | 47% | 1013.9 hPa | 0 mm | - | - | - |
| 1778013004 | 30.56° C | 46% | 1013.9 hPa | 0 mm | - | - | - |
| 1778012907 | 30.56° C | 46% | 1013.9 hPa | 0 mm | - | - | - |
| 1778012607 | 30.56° C | 48% | 1013.8 hPa | 0 mm | - | - | - |
| 1778012307 | 30° C | 48% | 1013.8 hPa | 0 mm | - | - | - |
| 1778012007 | 30° C | 47% | 1013.9 hPa | 0 mm | - | - | - |
| 1778011812 | 30° C | 50% | 1013.9 hPa | 0 mm | - | - | - |
| 1778011707 | 30° C | 50% | 1013.9 hPa | 0 mm | - | - | - |
| 1778011407 | 30° C | 48% | 1013.8 hPa | 0 mm | - | - | - |
| 1778011107 | 30.56° C | 48% | 1013.7 hPa | 0 mm | - | - | - |
| 1778010807 | 30.56° C | 48% | 1013.9 hPa | 0 mm | - | - | - |
| 1778010507 | 30.56° C | 50% | 1014 hPa | 0 mm | - | - | - |
| 1778010207 | 30.56° C | 48% | 1014.1 hPa | 0 mm | - | - | - |
| 1778009907 | 30.56° C | 50% | 1014.2 hPa | 0 mm | - | - | - |
| 1778009701 | 30.56° C | 44% | 1014.3 hPa | 0 mm | - | - | - |
| 1778009607 | 30.56° C | 44% | 1014.3 hPa | 0 mm | - | - | - |
| 1778009307 | 30° C | 46% | 1014.4 hPa | 0 mm | - | - | - |
| 1778009007 | 29.44° C | 46% | 1014.5 hPa | 0 mm | - | - | - |
| 1778008794 | 28.89° C | 46% | 1014.5 hPa | 0 mm | - | - | - |
| 1778008707 | 28.89° C | 46% | 1014.5 hPa | 0 mm | - | - | - |
| 1778008407 | 28.89° C | 49% | 1014.7 hPa | 0 mm | - | - | - |
| 1778008202 | 30° C | 47% | 1014.7 hPa | 0 mm | - | - | - |
| 1778008107 | 30° C | 47% | 1014.7 hPa | 0 mm | - | - | - |
| 1778007902 | 30° C | 51% | 1014.6 hPa | 0 mm | - | - | - |
| 1778007807 | 30° C | 51% | 1014.6 hPa | 0 mm | - | - | - |
* Rain latest hour (hover to see other rain measurements)
** Current wind speed in m/s (hover to see current wind gust speed)